NOAA-14
1 23455U 94089A   04337.36968665  .00000396  00000-0  23489-3 0  3750
2 23455  99.1189  16.2132 0009500 189.9877 170.1078 14.13516523511693
SICH-1
1 23657U 95046A   04337.84128002  .00000802  00000-0  99897-4 0  2909
2 23657  82.5300 221.2487 0025514  49.8798 310.4631 14.81014613498896
NOAA-15
1 25338U 98030A   04337.39711268  .00000120  00000-0  69904-4 0  8225
2 25338  98.5170 345.7063 0010025 209.8907 150.1701 14.24471980340736
RESURS
1 25394U 98043A   04337.89981244  .00000074  00000-0  50884-4 0  9618
2 25394  98.5647  46.4656 0001945  40.3217 319.8107 14.24038580332519
FENGYUN1
1 25730U 99025A   04335.55282433 -.00000042  00000-0 -16289-7 0 02937
2 25730 098.6053 339.3209 0013584 308.9629 051.0332 14.11784867286486
OKEAN-0
1 25860U 99039A   04337.80954931  .00000384  00000-0  66876-4 0  2947
2 25860  97.7784   6.1290 0002021 105.2178 254.9245 14.73164157289090
NOAA-16
1 26536U 00055A   04337.39751884  .00000021  00000-0  35775-4 0  1271
2 26536  98.9879 289.0061 0009772 262.6064  97.3998 14.12182151216281
NOAA-17
1 27453U 02032A   04337.42820557  .00000227  00000-0  11882-3 0  1477
2 27453  98.6850  47.7253 0010912 265.6503  94.3404 14.23603391126844
HUBBLE
1 20580U 90037B   04337.72733375  .00001298  00000-0  90214-4 0  2193
2 20580  28.4669 108.6374 0003768 340.9923  19.0525 14.99471314600725
UARS
1 21701U 91063B   04337.48956355 -.00000101  00000-0  11340-4 0  3239
2 21701  56.9802 267.3288 0004775  78.5281 281.6275 15.03697360723905
PO-34
1 25520U 98064B   04336.83191499  .00001856  00000-0  84350-4 0   637
2 25520  28.4604 191.4213 0005655 236.4884 123.5168 15.15948073336604
ISS
1 25544U 98067A   04337.98782078  .00017811  00000-0  14381-3 0  2762
2 25544  51.6367 184.2355 0004244  75.5956  75.3203 15.70939066344837
OO-38
1 26063U 00004C   04337.11304852  .00000035  00000-0  32668-4 0  2240
2 26063 100.2247 154.8880 0036571 249.8612 109.8619 14.35686606254014
NO-45
1 26932U 01043D   04337.82131432  .00000237  00000-0  12520-3 0  9075
2 26932  67.0597  13.1738 0007685 283.3347  76.6911 14.29459535165736
